Torna al catalogo

LDPE-3A DEB

AttivoGEO
NORAD 55267·DEBRIS·🇺🇸 United States

Lanciato Jan 15, 2023 da Cape Canaveral Space Force Station

Loading…

TLE

AggiornatoSource: Space-Track

Epoca: Sep 13, 2026, 21:39 UTC

1 55267U 23008E   26256.90277326 -.00000129  00000-0  00000-0 0  9998
2 55267   3.3735  76.9842 0003858 190.0939 170.3059  1.02218218  8805

Traccia LDPE-3A DEB in tempo reale con AllMySat

Download on the App Store